Find Starlink 2358

NORAD ID: 47898 Int'l Des: 2021-021 Owner: SPXS Country: US Constellation: starlink operational
LEOCIRCULAR

Live Position

Loading 3D Globe...

About Starlink 2358

Description loading...

Upcoming Passes

Passes for default location (London). Set your location on the main map for personalized predictions.

Altitude History

Loading altitude history...

Two-Line Element Set

1 47898U 21021AQ 26140.15742617 .00004401 00000-0 15359-3 0 9993
2 47898 53.1567 295.7111 0001590 100.5622 259.5559 15.31683026287149
Epoch: May 20, 2026 • Age: 4 hours

Current Status

Altitude 470.5 km
Velocity 7.63 km/s
Sub-Earth Point 17.71°N, 109.29°E
Launch Date Mar 14, 2021
Age 5.1 years
Type internet

Technical Details

Classification Payload
Mass 260.00 kg
Dry Mass 248.00 kg
Total Mass 260.00 kg
Length 0.20 m
Diameter 2.80 m
Span 9.00 m
Shape Box + pan
Manufacturer SPXS
Bus Type Starlink
Phase Status In Orbit
Owner/State SPXS/US

Most Searched